Location: Basse Occidentale du Courleau
(48.3833°N, 4.8333°W)
Time: 04:04:20
(UTC+00:00)

Cosmos 2151 - Pass Details

Date: 05 July 2020
Orbit: 580 x 602 km, 82.5° (Epoch: 11 August)

Event Time Altitude Azimuth Distance (km) Brightness Sun altitude
Exits shadow 23:23:49 38° 168° (SSE) 923 3.4 -17.7°
Maximum altitude 23:25:21 69° 97° (E) 644 3.0 -17.7°
Drops below altitude 10° 23:29:37 10° 14° (NNE) 1,943 6.6 -17.9°
Sets 23:31:50 0° 12° (NNE) 2,846 7.7 -18.0°
